Flag for Germany Weather past 2 weeks in Freising, Bavaria, Germany

Now
60 °F

Overcast.


Feels Like: 60 °F
Forecast: 52 / 61 °F
Wind: 2 mph from Northwest

Location: Muenchen Flughafen

Current Time: Aug 31, 2014 at 10:52:26 AM

Latest Report: Aug 31, 2014 at 10:00 AM


Visibility: 13 mi

Pressure: 29.99 "Hg

Humidity: 86%

Dew point: 55 °F

Location of FreisingLocation

Historic Weather in Freising — Graph

°F

Freising temperature yesterday

Maximum temperature yesterday: 73 °F (at 6:00 PM)
Minimum temperature yesterday: 61 °F (at 5:00 AM)
Average temperature yesterday: 65 °F

Past Weeks' High & Low Weather Summary

 TemperatureHumidityPressure
High73 °F (Aug 30, 6:00 PM)100% (Aug 28, 2:00 AM)30.17 "Hg (Aug 28, 2:00 AM)
Low42 °F (Aug 25, 6:00 AM)39% (Aug 17, 4:00 PM)29.70 "Hg (Aug 26, 7:00 PM)
Average59 °F76%30.00 "Hg
* Reported Aug 16 9:00 AM — Aug 31 9:00 AM, Freising, Weather by CustomWeather, © 2014

Note: Actual official high and low records may vary slightly from our data, if they occured in-between our weather recording intervals... More about our weather records

Advertising

Freising weather history for previous 24 hours

 ConditionsComfort  
Time TempWeatherWind HumidityBarometerVisibility
9:00 AM
Aug 31
59 °FOvercast.3 mph94%29.99 "Hg9 mi
8:00 AM58 °FLow clouds.3 mph94%29.99 "Hg7 mi
7:00 AM56 °FLow clouds.3 mph95%29.99 "Hg6 mi
6:00 AM55 °FOvercast.2 mph95%30.00 "Hg16 mi
5:00 AM56 °FOvercast.2 mph95%30.00 "Hg12 mi
4:00 AM56 °FOvercast.1 mph98%30.02 "Hg12 mi
3:00 AM55 °FPassing clouds.1 mph99%30.03 "Hg12 mi
2:00 AM57 °FPassing clouds.2 mph96%30.04 "Hg16 mi
1:00 AM58 °FOvercast.1 mph97%30.05 "Hg19 mi
12:00 AM58 °FOvercast.1 mph94%30.06 "Hg25 mi
11:00 PM
Aug 30
61 °FPassing clouds.1 mph89%30.05 "Hg28 mi
10:00 PM62 °FPassing clouds.1 mph86%30.06 "Hg31 mi
9:00 PM62 °FPassing clouds.1 mph77%30.06 "Hg37 mi
8:00 PM66 °FPassing clouds.1 mph71%30.03 "Hg37 mi
7:00 PM71 °FPassing clouds.1 mph56%30.01 "Hg31 mi
6:00 PM73 °FScattered clouds.1 mph51%30.01 "Hg31 mi
5:00 PM72 °FPartly sunny.2 mph52%30.02 "Hg31 mi
4:00 PM71 °FPartly sunny.3 mph60%30.03 "Hg31 mi
3:00 PM71 °FOvercast.2 mph59%30.05 "Hg31 mi
2:00 PM70 °FOvercast.2 mph60%30.06 "Hg28 mi
1:00 PM69 °FPartly sunny.2 mph70%30.08 "Hg19 mi
12:00 PM66 °FPartly sunny.2 mph77%30.10 "Hg19 mi
11:00 AM65 °FOvercast.3 mph80%30.10 "Hg16 mi
10:00 AM64 °FOvercast.2 mph86%30.10 "Hg12 mi
Weather by CustomWeather, © 2014

See weather overviewHow to use our weather pages